Location: Pompeys Pillar
(45.9913°N, 107.9528°W)
Time: 05:16:12
(UTC+00:00)

Tiros 1 - Pass Details

Date: 03 June 2022
Orbit: 629 x 663 km, 48.4° (Epoch: 30 June)

Event Time Altitude Azimuth Distance (km) Brightness Sun altitude
Rises 05:37:03 0° 242° (WSW) 2,907 10.5 -18.5°
Reaches altitude 10° 05:39:21 10° 240° (WSW) 2,001 9.6 -18.7°
Maximum altitude 05:43:56 73° 157° (SSE) 660 6.9 -19.0°
Drops below altitude 10° 05:48:33 10° 73° (ENE) 2,013 9.7 -19.2°
Sets 05:50:53 0° 71° (ENE) 2,926 10.5 -19.4°
